{"data":{"norad_id":55999,"intl_designator":"2023-042P","name":"STARLINK-5901","alt_names":[],"object_type":"PAYLOAD","status":"ACTIVE","operator":null,"country":"US","launch_date":"2023-03-24","launch_site_code":"AFETR","launch_vehicle":null,"mission":null,"orbit_class":"UNKNOWN","rcs_meters":null,"size_class":null,"mass_kg":null,"dimensions":null,"purposes":["comms"],"wikipedia_slug":null,"has_3d_model":false,"image_url":null,"decayed_at":null,"tle_current":{"epoch":"2026-05-24T23:16:17.487840Z","epoch_age_seconds":71677,"freshness":"FRESH","line1":"1 55999U 23042P   26144.96964685  .00001289  00000+0  56375-4 0  9997","line2":"2 55999  43.0044 348.9746 0001566 268.3277  91.7395 15.27580427174533","mean_motion":15.27580427,"eccentricity":0.0001566,"inclination_deg":43.0044,"raan_deg":348.9746,"arg_perigee_deg":268.3277,"mean_anomaly_deg":91.7395,"bstar":5.6375e-5,"rev_number":17453,"period_min":94.266722363549,"perigee_km":481.97335590593,"apogee_km":484.12227899075,"semimajor_km":6861.1848174483,"source":"CELESTRAK","updated_at":"2026-05-25T13:38:17.923924Z"}}}